When you browse on this site, cookies collect data to enhance your experience and personalize the content and advertising you see.
Visit our Privacy Policy to learn more. By continuing to use the site, you agree to this use of cookies and data.
  • En España
  • Lista de países
  • Para 7 días
  • Temperatura del agua
  • Mapa Satelital
  • El tiempo en el mapa
  • Informadores
  • user-avatar
    Iniciar sesión

    Tiempo cada hora Shibam

    Hoy, 25 Junio, Martes

    Tiempo Temperatura Precipitaciones Viento Presión Humedad
    00:00 +20°C° 0.1 mm 2 mps 560 mmHg 51%
    01:00 +20°C° 0 mm 1 mps 560 mmHg 50%
    02:00 +20°C° 0 mm 1 mps 559 mmHg 50%
    03:00 +18°C° 0 mm 0 mps 559 mmHg 51%
    04:00 +18°C° 0 mm 0 mps 559 mmHg 51%
    05:00 +18°C° 0 mm 0 mps 559 mmHg 51%
    06:00 +17°C° 0 mm 0 mps 560 mmHg 52%
    07:00 +21°C° 0 mm 1 mps 560 mmHg 45%
    08:00 +22°C° 0 mm 1 mps 561 mmHg 38%
    09:00 +24°C° 0 mm 2 mps 562 mmHg 30%
    10:00 +24°C° 0.1 mm 3 mps 562 mmHg 30%
    11:00 +23°C° 0.1 mm 4 mps 562 mmHg 30%
    12:00 +25°C° 0.1 mm 5 mps 562 mmHg 30%
    13:00 +25°C° 0.3 mm 5 mps 562 mmHg 31%
    14:00 +25°C° 0.3 mm 5 mps 562 mmHg 31%
    15:00 +25°C° 0 mm 5 mps 561 mmHg 32%
    16:00 +25°C° 0.7 mm 5 mps 561 mmHg 36%
    17:00 +23°C° 0.7 mm 5 mps 561 mmHg 39%
    18:00 +22°C° 0.7 mm 5 mps 561 mmHg 43%
    19:00 +22°C° 0.6 mm 4 mps 561 mmHg 45%
    20:00 +21°C° 0.6 mm 4 mps 561 mmHg 46%
    21:00 +20°C° 0.6 mm 4 mps 561 mmHg 48%
    22:00 +20°C° 0 mm 4 mps 561 mmHg 46%
    23:00 +20°C° 0 mm 5 mps 561 mmHg 44%

    Mañana, 26 Junio, Miércoles

    Tiempo Temperatura Precipitaciones Viento Presión Humedad
    00:00 +20°C° 0 mm 5 mps 561 mmHg 42%
    01:00 +20°C° 0 mm 4 mps 560 mmHg 42%
    02:00 +20°C° 0 mm 3 mps 560 mmHg 42%
    03:00 +19°C° 0 mm 2 mps 559 mmHg 42%
    04:00 +19°C° 0 mm 2 mps 559 mmHg 43%
    05:00 +19°C° 0 mm 2 mps 560 mmHg 44%
    06:00 +19°C° 0 mm 2 mps 560 mmHg 45%
    07:00 +20°C° 0 mm 2 mps 561 mmHg 40%
    08:00 +22°C° 0 mm 3 mps 562 mmHg 34%
    09:00 +23°C° 0 mm 4 mps 563 mmHg 29%
    10:00 +25°C° 0 mm 4 mps 563 mmHg 29%
    11:00 +25°C° 0 mm 5 mps 563 mmHg 28%
    12:00 +26°C° 0 mm 6 mps 563 mmHg 28%
    13:00 +26°C° 0 mm 5 mps 562 mmHg 28%
    14:00 +26°C° 0 mm 5 mps 562 mmHg 29%
    15:00 +26°C° 0 mm 4 mps 561 mmHg 30%
    16:00 +26°C° 0.1 mm 4 mps 561 mmHg 31%
    17:00 +25°C° 0.1 mm 5 mps 561 mmHg 33%
    18:00 +25°C° 0.1 mm 5 mps 561 mmHg 34%
    19:00 +24°C° 0.1 mm 3 mps 561 mmHg 39%
    20:00 +23°C° 0.1 mm 2 mps 561 mmHg 44%
    21:00 +22°C° 0.1 mm 1 mps 561 mmHg 48%
    22:00 +22°C° 0 mm 1 mps 560 mmHg 47%
    23:00 +21°C° 0 mm 2 mps 560 mmHg 46%

    Pasado mañana, 27 Junio, Jueves

    Tiempo Temperatura Precipitaciones Viento Presión Humedad
    00:00 +20°C° 0 mm 2 mps 560 mmHg 45%
    01:00 +20°C° 0 mm 2 mps 559 mmHg 46%
    02:00 +20°C° 0 mm 1 mps 559 mmHg 47%
    03:00 +20°C° 0 mm 1 mps 558 mmHg 48%
    04:00 +20°C° 0 mm 1 mps 558 mmHg 47%
    05:00 +19°C° 0 mm 2 mps 558 mmHg 45%
    06:00 +19°C° 0 mm 2 mps 558 mmHg 43%
    07:00 +21°C° 0 mm 3 mps 559 mmHg 35%
    08:00 +23°C° 0 mm 4 mps 561 mmHg 27%
    09:00 +26°C° 0 mm 6 mps 562 mmHg 19%
    10:00 +27°C° 0 mm 6 mps 562 mmHg 18%
    11:00 +28°C° 0 mm 6 mps 562 mmHg 18%
    12:00 +28°C° 0 mm 7 mps 562 mmHg 18%
    13:00 +28°C° 0 mm 7 mps 562 mmHg 19%
    14:00 +28°C° 0 mm 7 mps 561 mmHg 20%
    15:00 +28°C° 0 mm 7 mps 561 mmHg 21%
    16:00 +28°C° 0.1 mm 7 mps 561 mmHg 23%
    17:00 +27°C° 0.1 mm 6 mps 560 mmHg 26%
    18:00 +26°C° 0.1 mm 5 mps 560 mmHg 29%
    19:00 +25°C° 0 mm 5 mps 560 mmHg 30%
    20:00 +25°C° 0 mm 4 mps 560 mmHg 32%
    21:00 +23°C° 0 mm 4 mps 560 mmHg 33%
    22:00 +22°C° 0 mm 3 mps 559 mmHg 33%
    23:00 +23°C° 0 mm 2 mps 559 mmHg 34%

    28 Junio, Viernes

    Tiempo Temperatura Precipitaciones Viento Presión Humedad
    00:00 +22°C° 0 mm 1 mps 558 mmHg 34%
    01:00 +21°C° 0 mm 1 mps 558 mmHg 33%
    02:00 +21°C° 0 mm 1 mps 557 mmHg 32%
    03:00 +20°C° 0 mm 1 mps 557 mmHg 31%
    04:00 +20°C° 0 mm 1 mps 557 mmHg 30%
    05:00 +20°C° 0 mm 1 mps 557 mmHg 30%
    06:00 +20°C° 0 mm 1 mps 557 mmHg 30%
    07:00 +21°C° 0 mm 2 mps 558 mmHg 26%
    08:00 +24°C° 0 mm 2 mps 559 mmHg 21%
    09:00 +26°C° 0 mm 3 mps 561 mmHg 17%
    10:00 +27°C° 0 mm 4 mps 561 mmHg 18%
    11:00 +27°C° 0 mm 5 mps 561 mmHg 18%
    12:00 +28°C° 0 mm 6 mps 561 mmHg 19%
    13:00 +28°C° 0 mm 6 mps 561 mmHg 21%
    14:00 +28°C° 0 mm 6 mps 560 mmHg 23%
    15:00 +28°C° 0 mm 6 mps 560 mmHg 25%
    16:00 +27°C° 0.3 mm 6 mps 560 mmHg 27%
    17:00 +26°C° 0.3 mm 6 mps 559 mmHg 30%
    18:00 +24°C° 0.3 mm 6 mps 559 mmHg 32%
    19:00 +25°C° 0 mm 5 mps 559 mmHg 33%
    20:00 +23°C° 0 mm 4 mps 559 mmHg 35%
    21:00 +24°C° 0 mm 3 mps 559 mmHg 36%
    22:00 +22°C° 0 mm 3 mps 559 mmHg 35%
    23:00 +23°C° 0 mm 2 mps 558 mmHg 33%

    29 Junio, Sábado

    Tiempo Temperatura Precipitaciones Viento Presión Humedad
    00:00 +21°C° 0 mm 2 mps 558 mmHg 31%
    01:00 +21°C° 0 mm 2 mps 558 mmHg 32%
    02:00 +20°C° 0 mm 2 mps 557 mmHg 33%
    03:00 +21°C° 0 mm 1 mps 557 mmHg 33%
    04:00 +20°C° 0 mm 1 mps 557 mmHg 35%
    05:00 +20°C° 0 mm 1 mps 557 mmHg 37%
    06:00 +20°C° 0 mm 1 mps 558 mmHg 39%
    07:00 +21°C° 0 mm 1 mps 559 mmHg 35%
    08:00 +23°C° 0 mm 2 mps 560 mmHg 32%
    09:00 +25°C° 0 mm 3 mps 561 mmHg 28%
    10:00 +25°C° 0.1 mm 4 mps 561 mmHg 28%
    11:00 +26°C° 0.1 mm 5 mps 561 mmHg 28%
    12:00 +27°C° 0.1 mm 6 mps 562 mmHg 27%
    13:00 +27°C° 0.5 mm 6 mps 561 mmHg 29%
    14:00 +26°C° 0.5 mm 5 mps 560 mmHg 31%
    15:00 +26°C° 0.5 mm 5 mps 560 mmHg 33%
    16:00 +26°C° 0.3 mm 4 mps 560 mmHg 36%
    17:00 +25°C° 0.3 mm 4 mps 559 mmHg 40%
    18:00 +24°C° 0.3 mm 3 mps 559 mmHg 44%
    19:00 +24°C° 0.1 mm 2 mps 559 mmHg 46%
    20:00 +23°C° 0.1 mm 2 mps 559 mmHg 48%
    21:00 +23°C° 0.1 mm 1 mps 560 mmHg 50%
    22:00 +22°C° 0 mm 1 mps 559 mmHg 50%
    23:00 +22°C° 0 mm 1 mps 559 mmHg 49%

    30 Junio, Domingo

    Tiempo Temperatura Precipitaciones Viento Presión Humedad
    00:00 +22°C° 0 mm 1 mps 559 mmHg 49%
    01:00 +21°C° 0 mm 1 mps 558 mmHg 50%
    02:00 +21°C° 0 mm 1 mps 558 mmHg 50%
    03:00 +20°C° 0 mm 1 mps 557 mmHg 51%
    04:00 +20°C° 0 mm 1 mps 558 mmHg 53%
    05:00 +19°C° 0 mm 1 mps 558 mmHg 55%
    06:00 +19°C° 0 mm 1 mps 558 mmHg 57%
    07:00 +20°C° 0 mm 2 mps 559 mmHg 50%
    08:00 +21°C° 0 mm 2 mps 560 mmHg 43%
    09:00 +24°C° 0 mm 3 mps 561 mmHg 36%
    10:00 +25°C° 0.1 mm 4 mps 561 mmHg 35%
    11:00 +25°C° 0.1 mm 4 mps 561 mmHg 34%
    12:00 +26°C° 0.1 mm 5 mps 561 mmHg 34%
    13:00 +25°C° 0.8 mm 5 mps 561 mmHg 36%
    14:00 +25°C° 0.8 mm 5 mps 560 mmHg 39%
    15:00 +25°C° 0.8 mm 5 mps 560 mmHg 42%
    16:00 +23°C° 0.6 mm 4 mps 560 mmHg 44%
    17:00 +23°C° 0.6 mm 4 mps 559 mmHg 47%
    18:00 +22°C° 0.6 mm 4 mps 559 mmHg 50%
    19:00 +21°C° 0.2 mm 3 mps 559 mmHg 55%
    20:00 +20°C° 0.2 mm 2 mps 559 mmHg 60%
    21:00 +21°C° 0.2 mm 1 mps 559 mmHg 65%
    22:00 +19°C° 0 mm 0 mps 559 mmHg 65%
    23:00 +18°C° 0 mm 0 mps 559 mmHg 65%
    Mostrar más